When you browse on this site, cookies collect data to enhance your experience and personalize the content and advertising you see.
Visit our Privacy Policy to learn more. By continuing to use the site, you agree to this use of cookies and data.
  • en France
  • Liste des pays
  • À 7 jours
  • Température de l'eau
  • Carte météo
  • Widgets météo
  • user-avatar
    Se connecter

    Météo par heure à Hurghada

    Ce jour, 1 Juin, Lundi

    Heure Température Précipitation Vent Pression Humidité
    00:00 +21°C° 0 mm 4 m/s 682 mmHg 22%
    01:00 +20°C° 0 mm 4 m/s 681 mmHg 20%
    02:00 +20°C° 0 mm 4 m/s 681 mmHg 19%
    03:00 +20°C° 0 mm 4 m/s 681 mmHg 21%
    04:00 +20°C° 0 mm 3 m/s 681 mmHg 23%
    05:00 +20°C° 0 mm 3 m/s 682 mmHg 25%
    06:00 +22°C° 0 mm 4 m/s 682 mmHg 23%
    07:00 +25°C° 0 mm 5 m/s 683 mmHg 21%
    08:00 +27°C° 0 mm 6 m/s 683 mmHg 19%
    09:00 +29°C° 0 mm 6 m/s 684 mmHg 17%
    10:00 +30°C° 0 mm 6 m/s 684 mmHg 16%
    11:00 +33°C° 0 mm 6 m/s 684 mmHg 15%
    12:00 +34°C° 0 mm 7 m/s 684 mmHg 13%
    13:00 +34°C° 0 mm 7 m/s 683 mmHg 12%
    14:00 +35°C° 0 mm 8 m/s 683 mmHg 11%
    15:00 +34°C° 0 mm 8 m/s 682 mmHg 12%
    16:00 +34°C° 0 mm 7 m/s 682 mmHg 12%
    17:00 +33°C° 0 mm 7 m/s 682 mmHg 13%
    18:00 +30°C° 0 mm 6 m/s 682 mmHg 15%
    19:00 +28°C° 0 mm 4 m/s 681 mmHg 17%
    20:00 +26°C° 0 mm 2 m/s 681 mmHg 18%
    21:00 +25°C° 0 mm 2 m/s 681 mmHg 19%
    22:00 +24°C° 0 mm 1 m/s 681 mmHg 20%
    23:00 +24°C° 0 mm 1 m/s 681 mmHg 21%

    Demain, 2 Juin, Mardi

    Heure Température Précipitation Vent Pression Humidité
    00:00 +23°C° 0 mm 1 m/s 680 mmHg 22%
    01:00 +23°C° 0 mm 1 m/s 680 mmHg 22%
    02:00 +23°C° 0 mm 1 m/s 679 mmHg 23%
    03:00 +22°C° 0 mm 1 m/s 679 mmHg 24%
    04:00 +22°C° 0 mm 1 m/s 679 mmHg 25%
    05:00 +22°C° 0 mm 1 m/s 679 mmHg 27%
    06:00 +25°C° 0 mm 2 m/s 680 mmHg 23%
    07:00 +29°C° 0 mm 3 m/s 681 mmHg 19%
    08:00 +33°C° 0 mm 3 m/s 682 mmHg 15%
    09:00 +34°C° 0 mm 5 m/s 683 mmHg 13%
    10:00 +35°C° 0 mm 6 m/s 683 mmHg 12%
    11:00 +38°C° 0 mm 7 m/s 683 mmHg 11%
    12:00 +38°C° 0 mm 8 m/s 683 mmHg 10%
    13:00 +39°C° 0 mm 8 m/s 682 mmHg 10%
    14:00 +39°C° 0 mm 8 m/s 682 mmHg 9%
    15:00 +38°C° 0 mm 7 m/s 682 mmHg 11%
    16:00 +35°C° 0 mm 6 m/s 681 mmHg 13%
    17:00 +33°C° 0 mm 5 m/s 681 mmHg 15%
    18:00 +30°C° 0 mm 4 m/s 681 mmHg 18%
    19:00 +28°C° 0 mm 3 m/s 681 mmHg 21%
    20:00 +25°C° 0 mm 2 m/s 680 mmHg 24%
    21:00 +25°C° 0 mm 2 m/s 681 mmHg 23%
    22:00 +24°C° 0 mm 2 m/s 681 mmHg 23%
    23:00 +24°C° 0 mm 3 m/s 681 mmHg 23%

    Après-demain, 3 Juin, Mercredi

    Heure Température Précipitation Vent Pression Humidité
    00:00 +23°C° 0 mm 2 m/s 680 mmHg 24%
    01:00 +23°C° 0 mm 2 m/s 680 mmHg 24%
    02:00 +21°C° 0 mm 2 m/s 680 mmHg 24%
    03:00 +21°C° 0 mm 2 m/s 680 mmHg 25%
    04:00 +20°C° 0 mm 2 m/s 680 mmHg 26%
    05:00 +20°C° 0 mm 2 m/s 680 mmHg 28%
    06:00 +23°C° 0 mm 2 m/s 681 mmHg 25%
    07:00 +26°C° 0 mm 3 m/s 682 mmHg 23%
    08:00 +28°C° 0 mm 3 m/s 682 mmHg 20%
    09:00 +30°C° 0 mm 4 m/s 683 mmHg 19%
    10:00 +33°C° 0 mm 4 m/s 683 mmHg 17%
    11:00 +34°C° 0 mm 4 m/s 684 mmHg 16%
    12:00 +35°C° 0 mm 5 m/s 683 mmHg 15%
    13:00 +36°C° 0 mm 6 m/s 683 mmHg 15%
    14:00 +37°C° 0 mm 8 m/s 683 mmHg 14%
    15:00 +35°C° 0 mm 7 m/s 682 mmHg 15%
    16:00 +35°C° 0 mm 6 m/s 682 mmHg 16%
    17:00 +34°C° 0 mm 6 m/s 682 mmHg 16%
    18:00 +32°C° 0 mm 5 m/s 682 mmHg 19%
    19:00 +28°C° 0 mm 4 m/s 682 mmHg 22%
    20:00 +26°C° 0 mm 2 m/s 681 mmHg 25%
    21:00 +26°C° 0 mm 2 m/s 681 mmHg 25%
    22:00 +25°C° 0 mm 2 m/s 681 mmHg 26%
    23:00 +25°C° 0 mm 2 m/s 681 mmHg 26%

    4 Juin, Jeudi

    Heure Température Précipitation Vent Pression Humidité
    00:00 +25°C° 0 mm 2 m/s 681 mmHg 26%
    01:00 +24°C° 0 mm 2 m/s 681 mmHg 27%
    02:00 +24°C° 0 mm 2 m/s 680 mmHg 27%
    03:00 +24°C° 0 mm 1 m/s 680 mmHg 28%
    04:00 +23°C° 0 mm 1 m/s 680 mmHg 29%
    05:00 +23°C° 0 mm 1 m/s 680 mmHg 29%
    06:00 +25°C° 0 mm 1 m/s 681 mmHg 26%
    07:00 +28°C° 0 mm 1 m/s 682 mmHg 22%
    08:00 +31°C° 0 mm 1 m/s 683 mmHg 19%
    09:00 +32°C° 0 mm 2 m/s 683 mmHg 18%
    10:00 +34°C° 0 mm 3 m/s 683 mmHg 17%
    11:00 +35°C° 0 mm 3 m/s 684 mmHg 16%
    12:00 +36°C° 0 mm 4 m/s 683 mmHg 15%
    13:00 +36°C° 0 mm 4 m/s 683 mmHg 14%
    14:00 +37°C° 0 mm 5 m/s 683 mmHg 14%
    15:00 +36°C° 0 mm 4 m/s 683 mmHg 15%
    16:00 +36°C° 0 mm 4 m/s 682 mmHg 15%
    17:00 +35°C° 0 mm 4 m/s 682 mmHg 16%
    18:00 +33°C° 0 mm 3 m/s 682 mmHg 19%
    19:00 +30°C° 0 mm 2 m/s 682 mmHg 22%
    20:00 +28°C° 0 mm 2 m/s 681 mmHg 24%
    21:00 +27°C° 0 mm 2 m/s 681 mmHg 25%
    22:00 +27°C° 0 mm 2 m/s 681 mmHg 27%
    23:00 +26°C° 0 mm 3 m/s 681 mmHg 28%

    5 Juin, Vendredi

    Heure Température Précipitation Vent Pression Humidité
    00:00 +26°C° 0 mm 3 m/s 681 mmHg 28%
    01:00 +25°C° 0 mm 2 m/s 681 mmHg 29%
    02:00 +25°C° 0 mm 2 m/s 681 mmHg 30%
    03:00 +24°C° 0 mm 2 m/s 681 mmHg 31%
    04:00 +24°C° 0 mm 2 m/s 681 mmHg 32%
    05:00 +23°C° 0 mm 2 m/s 681 mmHg 34%
    06:00 +26°C° 0 mm 2 m/s 682 mmHg 29%
    07:00 +28°C° 0 mm 2 m/s 683 mmHg 25%
    08:00 +30°C° 0 mm 3 m/s 683 mmHg 21%
    09:00 +33°C° 0 mm 3 m/s 684 mmHg 19%
    10:00 +34°C° 0 mm 3 m/s 684 mmHg 17%
    11:00 +36°C° 0 mm 3 m/s 684 mmHg 15%
    12:00 +37°C° 0 mm 4 m/s 684 mmHg 15%
    13:00 +37°C° 0 mm 5 m/s 684 mmHg 14%
    14:00 +39°C° 0 mm 5 m/s 683 mmHg 14%
    15:00 +37°C° 0 mm 5 m/s 683 mmHg 14%
    16:00 +36°C° 0 mm 5 m/s 683 mmHg 15%
    17:00 +36°C° 0 mm 5 m/s 683 mmHg 16%
    18:00 +33°C° 0 mm 4 m/s 682 mmHg 19%
    19:00 +30°C° 0 mm 3 m/s 682 mmHg 23%
    20:00 +27°C° 0 mm 3 m/s 682 mmHg 27%
    21:00 +26°C° 0 mm 2 m/s 682 mmHg 28%
    22:00 +25°C° 0 mm 2 m/s 682 mmHg 29%
    23:00 +25°C° 0 mm 1 m/s 682 mmHg 30%

    6 Juin, Samedi

    Heure Température Précipitation Vent Pression Humidité
    00:00 +24°C° 0 mm 1 m/s 682 mmHg 31%
    01:00 +23°C° 0 mm 1 m/s 681 mmHg 32%
    02:00 +23°C° 0 mm 1 m/s 681 mmHg 33%
    03:00 +22°C° 0 mm 1 m/s 681 mmHg 34%
    04:00 +21°C° 0 mm 1 m/s 681 mmHg 35%
    05:00 +20°C° 0 mm 1 m/s 681 mmHg 37%
    06:00 +23°C° 0 mm 1 m/s 682 mmHg 32%
    07:00 +26°C° 0 mm 2 m/s 683 mmHg 27%
    08:00 +29°C° 0 mm 2 m/s 683 mmHg 21%
    09:00 +30°C° 0 mm 3 m/s 684 mmHg 18%
    10:00 +33°C° 0 mm 3 m/s 684 mmHg 16%
    11:00 +35°C° 0 mm 4 m/s 684 mmHg 13%
    12:00 +36°C° 0 mm 4 m/s 684 mmHg 12%
    13:00 +36°C° 0 mm 5 m/s 683 mmHg 12%
    14:00 +37°C° 0 mm 5 m/s 683 mmHg 12%
    15:00 +36°C° 0 mm 5 m/s 683 mmHg 13%
    16:00 +36°C° 0 mm 5 m/s 682 mmHg 14%
    17:00 +35°C° 0 mm 5 m/s 682 mmHg 15%
    18:00 +32°C° 0 mm 5 m/s 682 mmHg 17%
    19:00 +29°C° 0 mm 4 m/s 681 mmHg 19%
    20:00 +27°C° 0 mm 3 m/s 681 mmHg 21%
    21:00 +26°C° 0 mm 2 m/s 681 mmHg 22%
    22:00 +25°C° 0 mm 2 m/s 681 mmHg 23%
    23:00 +24°C° 0 mm 1 m/s 681 mmHg 23%
    Voir plus